Simultaneous Nadir Overpasses (SNOs) Predictions

Prediction of SNOs between METOP-A and NOAA-19 Satellite Orbit:

Table of predicted SNOs for the next 14.0 days since TLE Epoch: 2/22/2013
Index Date (METOP-A) Time (METOP-A) Lat,Lon (METOP-A) SZA (METOP-A ) Date (NOAA-19) Time (NOAA-19) Lat,Lon (NOAA-19) SZA (NOAA-19 ) Distance(km) Time Diff (sec)
1 02/28/2013 09:28:45 -73.75,-148.66 98.28 02/28/2013 09:27:34 -73.80,-150.28 98.13 50.42 71
2 02/28/2013 10:19:31 73.41, 17.89 81.41 02/28/2013 10:18:25 73.43, 17.87 81.45 2.00 66
3 02/28/2013 11:10:14 -73.38,-174.87 98.64 02/28/2013 11:09:30 -73.37,-174.78 98.63 2.78 44
4 02/28/2013 12:00:53 73.38, -7.51 81.36 02/28/2013 12:00:29 73.39, -7.57 81.38 2.08 24
5 02/28/2013 12:51:36 -73.35, 159.73 98.69 02/28/2013 12:51:34 -73.34, 159.78 98.70 1.97 2
6
